This demonstration page uses our WeatherBlox Daily Observations layout. Learn more.

Left ArrowRight Arrow

39.08367, -84.50855

Hourly Observations for August 30, 2015

Temp ( °F °C ) Dew Point ( °F °C ) Humidity (%) Winds ( mph kmh ) Pressure ( in mb ) Visibility ( mi km ) Precip ( " mm )
12:14 am 00:14 Clear with Mist and Fog 66 19 66 19 100 100 N N/A 30.06 1018 1 2 N/A
12:21 am 00:21 Clear with Fog 67 19.4 67 19.4 100 100 N N/A 30.06 1018 0 0 N/A
12:28 am 00:28 Clear with Mist and Fog 67 19.4 67 19.4 100 100 N N/A 30.06 1018 1 2 N/A
12:31 am 00:31 Clear with Mist and Fog 67 19.4 67 19.4 100 100 ENE 3 6 30.06 1018 3 5 N/A
12:48 am 00:48 Clear with Mist and Fog 66 19 66 19 100 100 N N/A 30.06 1018 2 3 N/A
12:53 am 00:53 Clear with Mist and Fog 66 18.9 66 18.9 100 100 N N/A 30.07 1018 2 3 N/A
12:57 am 00:57 Clear with Mist and Fog 66 18.9 66 18.9 100 100 N N/A 30.06 1018 1 1 N/A
1:12 am 01:12 Clear with Mist and Fog 66 19 66 19 100 100 N N/A 30.06 1018 2 3 N/A
1:20 am 01:20 Clear with Mist and Fog 67 19.4 67 19.4 100 100 N N/A 30.06 1018 4 6 N/A
1:26 am 01:26 Clear with Mist and Fog 66 19 66 19 100 100 N N/A 30.06 1018 2 3 N/A
1:35 am 01:35 Clear with Mist and Fog 67 19.4 67 19.4 100 100 N N/A 30.06 1018 1 1 N/A
1:39 am 01:39 Clear with Mist and Fog 67 19.4 67 19.4 100 100 NNE 3 6 30.06 1018 2 3 N/A
1:46 am 01:46 Clear with Mist and Fog 66 19 66 19 100 100 N N/A 30.06 1018 4 6 N/A
1:53 am 01:53 Clear with Mist and Fog 67 19.4 67 19.4 100 100 N N/A 30.07 1018 3 4 N/A
2:04 am 02:04 Clear with Mist and Fog 66 19 66 19 100 100 N N/A 30.06 1018 4 6 N/A
2:27 am 02:27 Clear with Mist and Fog 67 19.4 67 19.4 100 100 N N/A 30.06 1018 2 3 N/A
2:32 am 02:32 Clear with Mist and Fog 66 19 66 19 100 100 N N/A 30.06 1018 1 1 N/A
2:53 am 02:53 Clear with Mist and Fog 66 18.9 66 18.9 100 100 N N/A 30.07 1018 3 5 N/A
3:16 am 03:16 Clear with Mist and Fog 66 19 66 19 100 100 N N/A 30.06 1018 2 3 N/A
3:30 am 03:30 Clear with Fog 64 18 64 18 100 100 N N/A 30.06 1018 1 1 N/A
3:45 am 03:45 Mostly Cloudy with Fog 65 18.3 65 18.3 100 100 N N/A 30.06 1018 0 0 N/A
3:53 am 03:53 Mostly Cloudy with Fog 65 18.3 65 18.3 100 100 N N/A 30.06 1018 0 0 N/A
4:00 am 04:00 Mostly Cloudy with Mist and Fog 64 18 64 18 100 100 N N/A 30.06 1018 1 2 N/A
4:07 am 04:07 Partly Cloudy with Mist and Fog 64 17.8 64 17.8 100 100 N N/A 30.06 1018 2 3 N/A
4:11 am 04:11 Mostly Clear with Mist and Fog 64 17.8 64 17.8 100 100 N N/A 30.06 1018 3 5 N/A
4:18 am 04:18 Mostly Clear with Mist and Fog 64 18 64 18 100 100 N N/A 30.06 1018 2 3 N/A
4:24 am 04:24 Mostly Cloudy with Mist and Fog 64 17.8 64 17.8 100 100 N N/A 30.06 1018 1 1 N/A
4:32 am 04:32 Mostly Cloudy with Fog 64 18 64 18 100 100 N N/A 30.06 1018 1 1 N/A
4:49 am 04:49 Mostly Cloudy with Fog 63 17 63 17 100 100 NE 3 6 30.06 1018 0 0 N/A
4:53 am 04:53 Mostly Cloudy with Fog 63 17.2 63 17.2 100 100 ENE 3 6 30.07 1018 0 0 N/A
5:05 am 05:05 Mostly Cloudy with Mist and Fog 65 18.3 65 18.3 100 100 N N/A 30.06 1018 1 2 N/A
5:13 am 05:13 Mostly Cloudy with Fog 64 17.8 64 17.8 100 100 N N/A 30.06 1018 0 0 N/A
5:53 am 05:53 Mostly Cloudy with Fog 65 18.3 65 18.3 100 100 N N/A 30.08 1019 0 0 N/A
6:53 am 06:53 Partly Cloudy with Patchy Fog 64 17.8 64 17.8 100 100 N N/A 30.09 1019 2 3 N/A
7:20 am 07:20 Mostly Cloudy with Fog 64 18 64 18 100 100 N N/A 30.09 1019 1 1 N/A
7:42 am 07:42 Partly Cloudy with Mist and Fog 64 18 64 18 100 100 N N/A 30.09 1019 1 2 N/A
7:53 am 07:53 Partly Cloudy with Mist and Fog 65 18.3 65 18.3 100 100 N N/A 30.10 1019 1 2 N/A
8:18 am 08:18 Cloudy with Mist and Fog 66 18.9 66 18.9 100 100 undefined N/A 30.09 1019 3 5 N/A
8:53 am 08:53 Partly Cloudy with Mist and Fog 67 19.4 67 19.4 100 100 N N/A 30.11 1020 5 8 N/A
9:53 am 09:53 Sunny 71 21.7 69 20.6 94 94 SSW 7 11 30.11 1020 10 16 N/A
10:53 am 10:53 Sunny 75 23.9 70 21.1 84 84 SSE 6 9 30.11 1020 10 16 N/A
11:53 am 11:53 Partly Cloudy 78 25.6 71 21.7 79 79 SSW 6 9 30.11 1020 10 16 N/A
12:16 pm 12:16 Partly Cloudy 81 27 73 23 79 79 S 6 9 30.09 1019 10 16 N/A
12:53 pm 12:53 Sunny 82 27.8 72 22.2 72 72 S 6 9 30.10 1019 10 16 N/A
1:53 pm 13:53 Sunny 83 28.3 72 22.2 70 70 S 5 7 30.08 1019 10 16 N/A
2:53 pm 14:53 Mostly Cloudy 84 28.9 70 21.1 63 63 VRB 5 7 30.06 1018 10 16 N/A
3:53 pm 15:53 Mostly Cloudy 84 28.9 71 21.7 65 65 S 8 13 30.04 1017 10 16 N/A
4:53 pm 16:53 Mostly Cloudy 85 29.4 70 21.1 61 61 S 12 19 30.03 1017 10 16 N/A
5:53 pm 17:53 Mostly Cloudy 82 27.8 69 20.6 65 65 SSW 13 20 30.03 1017 10 16 N/A
6:16 pm 18:16 Sunny with Nearby Thunderstorms 79 26 68 20 70 70 SSW 5 7 30.03 1017 10 16 N/A
6:51 pm 18:51 Sunny 79 26 70 21 74 74 S 5 7 30.03 1017 10 16 N/A
6:53 pm 18:53 Sunny 78 25.6 69 20.6 74 74 S 5 7 30.04 1017 10 16 N/A
7:53 pm 19:53 Partly Cloudy 75 23.9 70 21.1 84 84 N N/A 30.04 1017 10 16 N/A
8:53 pm 20:53 Clear 73 22.8 69 20.6 87 87 N N/A 30.06 1018 10 16 N/A
9:53 pm 21:53 Clear 70 21.1 68 20 93 93 N N/A 30.07 1018 10 16 N/A
10:53 pm 22:53 Clear 69 20.6 68 20 96 96 N N/A 30.07 1018 10 16 N/A
11:53 pm 23:53 Clear 70 21.1 68 20 93 93 N N/A 30.07 1018 10 16 N/A

Powered by AerisWeather